STARLINK-2121, 47399

Orbit data source: Space-Track

STARLINK-2121, 47399 is a payload satellite owned by SpaceX/Seattle (US) in LEO that was launched on Wed, 20 Jan 2021 UTC via an FALCON 9 launch vehicle from the Air Force Eastern Test Range (AFETR). Payload-class satellites include a variety of spacecraft equipped with specific instruments for various scientific and technological missions. These include communications satellites like Starlink; space stations such as the ISS; scientific satellites like the Hubble; Earth observation satellites from companies like Planet Labs, Umbra, and HawkEye 360; GPS; miniature CubeSats for education and research; and military/defense satellites.

Loading next visibility...
Identifier
47399, 2021-005BC
Orbit
LEO
Country
Flag of USUS
Related business
Manufacturer
SpaceX/Seattle
Mission
Operational Commercial Communications
Bus & Motor
STARLINK, Unknown motor
Mass
260 kg wet, ~248 kg dry
Launch date (UTC)
2021-01-20 (5 years ago)
Launch vehicle
FALCON 9
Launch site
Air Force Eastern Test Range (AFETR)
Object type
Payload
Rocket body
Debris
Shape & HBR
Box + 1 Pan, 10.1 m
Radar Cross Section
13.562 m², Large (>1 m²)

Expand to show TLE details & history
Last TLE update: 3 days ago

TLE from 3 days ago
0 STARLINK-2121
1 47399U 21005BC  26170.58146744  .00001160  00000-0  49130-4 0  9994
2 47399  53.1595 282.6792 0001068  71.3258 288.7859 15.31703597299007
Epoch: 2026-06-19T13:57Z
TLE epoch observation values (Epoch: 2026-06-19T13:57:18.786Z)
Latitude
-0.00006°
Longitude
165.54249°
Altitude
471.394 km
Speed
7.632 km/s
True Right ascension
18h 50m 42s
True Declination
0° 00' 00"
Sunlit
Object was in full shadow at epoch
Visualization orbit readout
Latitude
Unknown
Longitude
Unknown
Altitude
Unknown
Speed
Unknown
Apparent Right ascension
Unknown
Apparent Declination
Unknown
Sunlit
N/A
Visualization observer readout
Local Sidereal Time
21:32:00
Azimuth
Unknown
Elevation
Unknown
Doppler factor
Unknown
Orbital elements
Apogee altitude
471.717 km
Perigee altitude
470.254 km
Semi-major axis
6,849.123 km
Eccentricity
0.00011
Inclination
53.1595°
RAAN
282.6792°
Arg. of periapsis
71.3258°
True anomaly
288.77431°
Mean anomaly
288.7859°
Eccentric anomaly
288.78011°
Mean motion
3.82905 °/min
Orbital period
94.02 mins
BSTAR
0.00004913
Loading maneuver chart data...
Computing Atmospheric mass density...

Documentation

Showing up to 5 results
|